Tracking 18624 objects as of 29-April-2017
HD Live streaming from Space Station
objects crossing your sky now

OPS 9314 (IDSCS 4)

Track OPS 9314 (IDSCS 4) now!
OPS 9314 (IDSCS 4) is classified as:


NORAD ID: 2218
Int'l Code: 1966-053E
Perigee: 33,701.9 km
Apogee: 34,023.9 km
Inclination: 2.6 °
Period: 1,338.6 minutes
Semi major axis: 40233 km
RCS: 0.1 m2 (medium)
Launch date: June 16, 1966
Source: United States (US)
Launch site: AIR FORCE EASTERN TEST RANGE (AFETR)
Your satellite tracking list
Your tracking list is empty





NASA's NSSDC Master Catalog

Two Line Element Set (TLE):
1  2218U 66053E   17117.18872373 -.00000076 +00000-0 +00000-0 0  9993
2  2218 002.6202 058.0488 0040016 120.3520 239.8959 01.07575810199484
Source of the keplerian elements: AFSPC